sat.trackr.live / text

‹ back to catalog

STARLINK-37326

NORAD 68542 · 2026-070A

PAYLOAD ACTIVE UNKNOWN

§ Identity

Operator
Country
US
Launch date
2026-04-02
Launch site
AFETR
Launch vehicle
Mass (kg)
RCS (m²)

Purposes: comms

External: N2YO · Heavens-Above · Gunter

§ Orbital elements

Epoch: 2026-05-25T00:27:43.722720Z

Period
93.85 min
Inclination
53.1609°
Eccentricity
0.0001334
Mean motion
15.34403587 rev/d
Perigee alt
461.8 km
Apogee alt
463.6 km
Semi-major
6,840.8 km
B*
4.7417e-4
RAAN
7.8659°
Arg perigee
77.2228°
Mean anomaly
282.8923°
Rev number
824

§ Raw data

STARLINK-373261 68542U 26070A   26145.01925605  .00015680  00000+0  47417-3 0  99912 68542  53.1609   7.8659 0001334  77.2228 282.8923 15.34403587  8243

JSON: /api/v1/satellites/68542 · /tle

For live sub-satellite position, see the globe view (requires WebGL).

§ Visibility from observer

Set your observer location to see the next 7 days of passes ≥ 10°. The values pass through the URL so the page stays shareable.

No JS? Fill the form by hand. The geolocation button needs JavaScript.